Preview of NWS' New Version of Forecast
This preview is not operational and should not be used for support decisions.

Regional Weather Roundup (RWR)

Issued by Gray - Portland, ME (GYX)

                            
000
ASUS41 KGYX 191410
RWRGYX
WEATHER ROUNDUP FOR MAINE AND NEW HAMPSHIRE
NATIONAL WEATHER SERVICE GRAY ME
900 AM EST TUE FEB 19 2019

MEZ002-005-006-010-012-015-018-020-021-024-026-027-029-191500-
MAINE
  
CITY           SKY/WX    TMP DP  RH WIND       PRES   REMARKS
PORTLAND       FAIR      14   1  56 NW16      30.42R WCI  -2          
SANFORD        FAIR      19   4  51 NW8       30.42R                  
BAR HARBOR     FAIR      10  -3  55 NW13G18   30.37R WCI  -5          
WISCASSET      FAIR      15  -2  46 NW9       30.42R                  
ROCKLAND       FLURRIES  13  -1  54 NW14G20   30.38R WCI  -2          
FRYEBURG       FAIR      12  -3  51 CALM      30.40R                  
LEWISTONAUBURN FAIR      13  -1  54 NW17      30.41R WCI  -4          
AUGUSTA        FAIR      11  -4  51 NW16G23   30.39R WCI  -6          
WATERVILLE       N/A    N/A N/A N/A MISG        N/A                   
BANGOR         FAIR       9  -5  53 NW15G24   30.38R WCI  -8          
GREENVILLE       N/A      0 -15  49 NW18G33   30.23R WCI -21          
MILLINOCKET    FAIR       4  -8  57 W16G28    30.34R WCI -15          
HOULTON        NOT AVBL                                               
PRESQUE ISLE   FAIR       4  -7  60 W13G22    30.28R WCI -13          
FRENCHVILLE    CLOUDY     1 -11  57 NW17G26   30.19R WCI -19          
CARIBOU        FAIR       2 -10  57 NW16G22   30.25R WCI -18          
$$

NHZ002-005-008-009-011-012-014-191500-
NEW HAMPSHIRE
  
CITY           SKY/WX    TMP DP  RH WIND       PRES   REMARKS
PORTSMOUTH     MOSUNNY   17   1  50 NW12      30.42R WCI   4          
ROCHESTER      FAIR      16   1  51 NW17G26   30.40R WCI   0          
NASHUA         FAIR      18   4  54 NW13      30.47R WCI   5          
MANCHESTER     FAIR      17   1  49 NW13G22   30.45R WCI   4          
CONCORD        FAIR      13   1  59 NW14      30.46R WCI  -2          
LACONIA        FAIR      15   1  53 NW10      30.44R WCI   2          
PLYMOUTH       FAIR      11  -1  58 W13G18    30.45R HAZE    WCI  -4  
BERLIN         FAIR       8  -3  61 VRB3      30.38R                  
WHITEFIELD     FAIR       5  -1  76 CALM      30.42R                  
JAFFREY        FAIR      16   2  54 VRB6      30.39R                  
KEENE          FAIR      16   5  62 N6        30.48R                  
LEBANON        FAIR       9   0  67 NW7       30.48R                  
MT WASHINGTON  PTSUNNY  -11 -18  70 NW71G81     N/A  WCI -51          
$$

VTZ005-007-008-191500-
VERMONT
  
CITY           SKY/WX    TMP DP  RH WIND       PRES   REMARKS
ST JOHNSBURY     N/A     10  -1  61 MISG      30.46R                  
MONTPELIER     FAIR       5  -1  76 NW8       30.47R                  
BURLINGTON     FAIR       8  -1  66 NE3       30.55R                  
$$

MAZ007-012-024-CTZ003-RIZ002-NYZ038-NYZ072-191500-
SOUTHERN NEW ENGLAND AND NY
  
CITY           SKY/WX    TMP DP  RH WIND       PRES   REMARKS
WORCESTER      FAIR      14   3  61 W13       30.40R WCI   0          
NANTUCKET      FAIR      23  11  60 N22G29    30.43R WCI   8          
PROVIDENCE     PTSUNNY   22   5  48 NW13G20   30.47R WCI  10          
HARTFORD       PTSUNNY   19   5  54 CALM      30.51R                  
ALBANY         FAIR      16   2  54 N5        30.57R                  
NEW YORK CITY  FAIR      26  11  52 NW18      30.56R WCI  13          
$$

ANZ081-ANZ082-ANZ150-NHZ014-MEZ023>029-191500-
COASTAL MARINE OBSERVATIONS
  
STATION/POSITION TIME  TEMP    WIND        PRES    WAVE
                       AIR SEA DIR/SP/G            HT/PER
                 (UTC) (F)     (DEG/KT/KT) (MB)    (FT/S)
MOUNT DESERT ROC 1400   13     310/ 22/ 25 1027.6R
MATINICUS ROCK   1300   14     320/ 18/ 21 1027.6R
ISLE OF SHOALS   1300   16     320/ 13/ 15 1029.8R
JEFFREYS LEDGE   1308      40                N/A     5/ 5
CASHES LEDGE BUO 1350   22 39              1028.7
$$

.............KEY..............
   WCI - WIND CHILL
   TC  - TEMPERATURE IN CELSIUS
   VSB - VISIBILITY IN MILES
   HX  - HEAT INDEX
   FAIR- INDICATES FEW OR NO CLOUDS BELOW 12,000 FT, WITH NO 
         SIGNIFICANT WEATHER AND/OR OBSTRUCTIONS TO VISIBILITY.